Regional Weather Roundup
Issued by NWS Jackson, KY

Home | Current Version | Previous Version | Graphics & Text | Print | Product List | Glossary On
Versions: 1 2 3 4 5 6 7 8 9 10 11 12 13 14 15 16 17 18 19 20 21 22 23 24 25 26 27 28 29 30 31 32 33 34 35 36 37 38 39 40 41 42 43 44 45 46 47 48 49 50
000
ASUS43 KJKL 262010
RWRJKL

EAST KENTUCKY HOURLY WEATHER ROUNDUP
NATIONAL WEATHER SERVICE JACKSON KY
300 PM EST THU FEB 26 2015

NOTE: "FAIR" INDICATES FEW OR NO CLOUDS BELOW 12,000 FEET WITH
NO SIGNIFICANT WEATHER AND/OR OBSTRUCTIONS TO VISIBILITY.

* THESE REPORTS ARE NOT UNDER NWS QUALITY CONTROL AND MAY NOT
  REPORT WEATHER SUCH AS PRECIPITATION AND FOG.

KYZ079-080-083-085-087-088-110-112-115-119-120-262100
...EASTERN KENTUCKY...

CITY           SKY/WX    TMP DP  RH WIND       PRES   REMARKS
JACKSON        SUNNY     39  15  37 W5        29.94R
LONDON         SUNNY     40  17  39 N8        29.96R WCI  34
SOMERSET*      MOSUNNY   36  19  51 N7        30.02R WCI  30
MONTICELLO*    MOSUNNY   40  23  50 W8        30.03R WCI  34
MIDDLESBORO*   MOSUNNY   38  26  61 CALM      29.97R
BLACK MTN*       N/A     32  25  74 S2          N/A
PIKEVILLE APT* PTSUNNY   36  21  55 NW3       29.92R
BIG SANDY*     PTCLDY    39  21  48 NW3       29.94R
MOREHEAD APT*  CLEAR     30  14  51 N10       30.03R WCI  21
$$

KYZ035-036-041-042-044-050-067-078-099-262100
...CENTRAL KENTUCKY...

CITY           SKY/WX    TMP DP  RH WIND       PRES   REMARKS
MT STERLING*   SUNNY     32  18  55 N8        30.03R WCI  25
DANVILLE*      MOSUNNY   32  21  64 N7        30.03R WCI  26
RICHMOND*      MOSUNNY   34  18  51 NW9       30.00R WCI  26
LEXINGTON      SUNNY     32  17  54 NW8       30.03R WCI  25
FRANKFORT      PTSUNNY   32  15  49 NW12      30.03R WCI  23
$$

KYZ091>093-OHZ055-061-077-WVZ005-015-034-035-042-262100
...SOUTHERN OHIO/WEST VIRGINIA...

CITY           SKY/WX    TMP DP  RH WIND       PRES   REMARKS
COVINGTON      PTSUNNY   24  13  62 NW14      30.06S WCI  12
COLUMBUS       MOSUNNY   18   7  62 N9        30.06R WCI   7
DAYTON         CLOUDY    18   8  65 N16       30.10R WCI   3
WILMINGTON     MIX PCPN  18   9  68 N13       30.05R WCI   5
HUNTINGTON     SUNNY     35  17  47 NW10G17   29.96S WCI  27
CHARLESTON     PTSUNNY   34  19  54 S6        29.94F WCI  29
PINEVILLE*     CLOUDY    33  30  89 MISG      29.96R
BECKLEY        CLOUDY    28  24  85 N14       29.86R WCI  17
BLUEFIELD      CLOUDY    30  25  81 NW9       29.85R WCI  22
$$

VAZ002-007-008-TNZ017-027-036-066-071-262100
...SOUTHWEST VIRGINIA/EAST TENNESSEE...

CITY           SKY/WX    TMP DP  RH WIND       PRES   REMARKS
WISE*          CLOUDY    32  27  80 CALM      29.89R
JONESVILLE*    MOCLDY    36  25  64 CALM      29.96S
ABINGDON*      CLOUDY    35  29  78 NW6       29.90R WCI  30
BRISTOL        CLOUDY    35  30  82 SW5       29.93R WCI  31
KNOXVILLE      CLOUDY    35  30  82 S5        29.98R WCI  31
OAK RIDGE      PTSUNNY   41  26  55 CALM      29.98S
CROSSVILLE     PTSUNNY   35  24  64 NW8       29.96R WCI  29
NASHVILLE      PTSUNNY   46  22  38 NW14      30.06R
$$

...KEY TO REMARKS...
VSB - VISIBILITY IN MILES
WCI - WIND CHILL INDEX
HX  - HEAT INDEX

$$


USA.gov is the U.S. government's official web portal to all federal, state and local government web resources and services.